Year,Month,Day,Hour,Minute,Value (Times are PST for temperature in C)
2018,04,26,00,00,10.70
2018,04,26,00,01,10.60
2018,04,26,00,02,10.60
2018,04,26,00,03,10.60
2018,04,26,00,04,10.60
2018,04,26,00,05,10.50
2018,04,26,00,06,10.50
2018,04,26,00,07,10.50
2018,04,26,00,08,10.40
2018,04,26,00,09,10.40
2018,04,26,00,10,10.40
2018,04,26,00,11,10.30
2018,04,26,00,12,10.30
2018,04,26,00,13,10.30
2018,04,26,00,14,10.30
2018,04,26,00,15,10.30
2018,04,26,00,16,10.30
2018,04,26,00,17,10.20
2018,04,26,00,18,10.20
2018,04,26,00,19,10.20
2018,04,26,00,20,10.20
2018,04,26,00,21,10.20
2018,04,26,00,22,10.20
2018,04,26,00,23,10.20
2018,04,26,00,24,10.10
2018,04,26,00,25,10.10
2018,04,26,00,26,10.10
2018,04,26,00,27,10.10
2018,04,26,00,28,10.10
2018,04,26,00,29,10.10
2018,04,26,00,30,10.10
2018,04,26,00,31,10.10
2018,04,26,00,32,10.10
2018,04,26,00,33,10.10
2018,04,26,00,34,10.10
2018,04,26,00,35,10.10
2018,04,26,00,36,10.10
2018,04,26,00,37,10.10
2018,04,26,00,38,10.10
2018,04,26,00,39,10.10
2018,04,26,00,40,10.10
2018,04,26,00,41,10.10
2018,04,26,00,42,10.10
2018,04,26,00,43,10.10
2018,04,26,00,44,10.10
2018,04,26,00,45,10.10
2018,04,26,00,46,10.10
2018,04,26,00,47,10.10
2018,04,26,00,48,10.10
2018,04,26,00,49,10.10
2018,04,26,00,50,10.10
2018,04,26,00,51,10.10
2018,04,26,00,52,10.10
2018,04,26,00,53,10.10
2018,04,26,00,54,10.10
2018,04,26,00,55,10.10
2018,04,26,00,56,10.10
2018,04,26,00,57,10.00
2018,04,26,00,58,10.00
2018,04,26,00,59,10.00
2018,04,26,01,00,10.00
2018,04,26,01,01,10.00
2018,04,26,01,02,10.00
2018,04,26,01,03,10.00
2018,04,26,01,04,10.00
2018,04,26,01,05,10.00
2018,04,26,01,06,10.00
2018,04,26,01,07,10.00
2018,04,26,01,08,10.00
2018,04,26,01,09,10.00
2018,04,26,01,10,10.00
2018,04,26,01,11,10.00
2018,04,26,01,12,10.00
2018,04,26,01,13,10.00
2018,04,26,01,14,10.00
2018,04,26,01,15,10.00
2018,04,26,01,16,10.00
2018,04,26,01,17,10.00
2018,04,26,01,18,9.90
2018,04,26,01,19,9.90
2018,04,26,01,20,9.90
2018,04,26,01,21,9.90
2018,04,26,01,22,9.90
2018,04,26,01,23,9.90
2018,04,26,01,24,9.90
2018,04,26,01,25,9.80
2018,04,26,01,26,9.80
2018,04,26,01,27,9.80
2018,04,26,01,28,9.80
2018,04,26,01,29,9.80
2018,04,26,01,30,9.80
2018,04,26,01,31,9.80
2018,04,26,01,32,9.80
2018,04,26,01,33,9.80
2018,04,26,01,34,9.80
2018,04,26,01,35,9.80
2018,04,26,01,36,9.80
2018,04,26,01,37,9.80
2018,04,26,01,38,9.80
2018,04,26,01,39,9.80
2018,04,26,01,40,9.80
2018,04,26,01,41,9.80
2018,04,26,01,42,9.70
2018,04,26,01,43,9.70
2018,04,26,01,44,9.70
2018,04,26,01,45,9.70
2018,04,26,01,46,9.70
2018,04,26,01,47,9.70
2018,04,26,01,48,9.70
2018,04,26,01,49,9.70
2018,04,26,01,50,9.70
2018,04,26,01,51,9.60
2018,04,26,01,52,9.60
2018,04,26,01,53,9.60
2018,04,26,01,54,9.60
2018,04,26,01,55,9.60
2018,04,26,01,56,9.50
2018,04,26,01,57,9.50
2018,04,26,01,58,9.40
2018,04,26,01,59,9.40
2018,04,26,02,00,9.40
2018,04,26,02,01,9.30
2018,04,26,02,02,9.30
2018,04,26,02,03,9.30
2018,04,26,02,04,9.30
2018,04,26,02,05,9.30
2018,04,26,02,06,9.20
2018,04,26,02,07,9.20
2018,04,26,02,08,9.20
2018,04,26,02,09,9.20
2018,04,26,02,10,9.20
2018,04,26,02,11,9.20
2018,04,26,02,12,9.20
2018,04,26,02,13,9.10
2018,04,26,02,14,9.10
2018,04,26,02,15,9.10
2018,04,26,02,16,9.10
2018,04,26,02,17,9.10
2018,04,26,02,18,9.10
2018,04,26,02,19,9.10
2018,04,26,02,20,9.10
2018,04,26,02,21,9.10
2018,04,26,02,22,9.10
2018,04,26,02,23,9.10
2018,04,26,02,24,9.10
2018,04,26,02,25,9.10
2018,04,26,02,26,9.10
2018,04,26,02,27,9.10
2018,04,26,02,28,9.10
2018,04,26,02,29,9.10
2018,04,26,02,30,9.10
2018,04,26,02,31,9.10
2018,04,26,02,32,9.10
2018,04,26,02,33,9.10
2018,04,26,02,34,9.10
2018,04,26,02,35,9.10
2018,04,26,02,36,9.10
2018,04,26,02,37,9.00
2018,04,26,02,38,9.00
2018,04,26,02,39,9.00
2018,04,26,02,40,8.90
2018,04,26,02,41,8.90
2018,04,26,02,42,8.90
2018,04,26,02,43,8.90
2018,04,26,02,44,8.90
2018,04,26,02,45,8.90
2018,04,26,02,46,8.90
2018,04,26,02,47,8.80
2018,04,26,02,48,8.80
2018,04,26,02,49,8.80
2018,04,26,02,50,8.80
2018,04,26,02,51,8.80
2018,04,26,02,52,8.80
2018,04,26,02,53,8.80
2018,04,26,02,54,8.80
2018,04,26,02,55,8.80
2018,04,26,02,56,8.80
2018,04,26,02,57,8.80
2018,04,26,02,58,8.80
2018,04,26,02,59,8.80
2018,04,26,03,00,8.80
2018,04,26,03,01,8.80
2018,04,26,03,02,8.80
2018,04,26,03,03,8.70
2018,04,26,03,04,8.70
2018,04,26,03,05,8.70
2018,04,26,03,06,8.70
2018,04,26,03,07,8.70
2018,04,26,03,08,8.70
2018,04,26,03,09,8.70
2018,04,26,03,10,8.70
2018,04,26,03,11,8.70
2018,04,26,03,12,8.80
2018,04,26,03,13,8.80
2018,04,26,03,14,8.70
2018,04,26,03,15,8.70
2018,04,26,03,16,8.70
2018,04,26,03,17,8.70
2018,04,26,03,18,8.70
2018,04,26,03,19,8.70
2018,04,26,03,20,8.70
2018,04,26,03,21,8.70
2018,04,26,03,22,8.70
2018,04,26,03,23,8.70
2018,04,26,03,24,8.70
2018,04,26,03,25,8.70
2018,04,26,03,26,8.70
2018,04,26,03,27,8.70
2018,04,26,03,28,8.70
2018,04,26,03,29,8.70
2018,04,26,03,30,8.70
2018,04,26,03,31,8.70
2018,04,26,03,32,8.70
2018,04,26,03,33,8.70
2018,04,26,03,34,8.70
2018,04,26,03,35,8.70
2018,04,26,03,36,8.60
2018,04,26,03,37,8.60
2018,04,26,03,38,8.60
2018,04,26,03,39,8.60
2018,04,26,03,40,8.60
2018,04,26,03,41,8.60
2018,04,26,03,42,8.60
2018,04,26,03,43,8.60
2018,04,26,03,44,8.60
2018,04,26,03,45,8.50
2018,04,26,03,46,8.50
2018,04,26,03,47,8.50
2018,04,26,03,48,8.40
2018,04,26,03,49,8.40
2018,04,26,03,50,8.40
2018,04,26,03,51,8.40
2018,04,26,03,52,8.40
2018,04,26,03,53,8.30
2018,04,26,03,54,8.30
2018,04,26,03,55,8.30
2018,04,26,03,56,8.30
2018,04,26,03,57,8.20
2018,04,26,03,58,8.20
2018,04,26,03,59,8.20
2018,04,26,04,00,8.20
2018,04,26,04,01,8.20
2018,04,26,04,02,8.20
2018,04,26,04,03,8.10
2018,04,26,04,04,8.10
2018,04,26,04,05,8.10
2018,04,26,04,06,8.10
2018,04,26,04,07,8.10
2018,04,26,04,08,8.10
2018,04,26,04,09,8.10
2018,04,26,04,10,8.10
2018,04,26,04,11,8.10
2018,04,26,04,12,8.10
2018,04,26,04,13,8.10
2018,04,26,04,14,8.10
2018,04,26,04,15,8.10
2018,04,26,04,16,8.10
2018,04,26,04,17,8.10
2018,04,26,04,18,8.10
2018,04,26,04,19,8.10
2018,04,26,04,20,8.10
2018,04,26,04,21,8.10
2018,04,26,04,22,8.10
2018,04,26,04,23,8.10
2018,04,26,04,24,8.10
2018,04,26,04,25,8.10
2018,04,26,04,26,8.10
2018,04,26,04,27,8.10
2018,04,26,04,28,8.10
2018,04,26,04,29,8.10
2018,04,26,04,30,8.10
2018,04,26,04,31,8.10
2018,04,26,04,32,8.10
2018,04,26,04,33,8.10
2018,04,26,04,34,8.00
2018,04,26,04,35,8.00
2018,04,26,04,36,8.00
2018,04,26,04,37,7.90
2018,04,26,04,38,7.90
2018,04,26,04,39,7.90
2018,04,26,04,40,7.90
2018,04,26,04,41,7.90
2018,04,26,04,42,7.80
2018,04,26,04,43,7.80
2018,04,26,04,44,7.80
2018,04,26,04,45,7.80
2018,04,26,04,46,7.80
2018,04,26,04,47,7.80
2018,04,26,04,48,7.80
2018,04,26,04,49,7.80
2018,04,26,04,50,7.80
2018,04,26,04,51,7.80
2018,04,26,04,52,7.80
2018,04,26,04,53,7.80
2018,04,26,04,54,7.70
2018,04,26,04,55,7.70
2018,04,26,04,56,7.70
2018,04,26,04,57,7.70
2018,04,26,04,58,7.70
2018,04,26,04,59,7.70
2018,04,26,05,00,7.70
2018,04,26,05,01,7.70
2018,04,26,05,02,7.70
2018,04,26,05,03,7.70
2018,04,26,05,04,7.70
2018,04,26,05,05,7.70
2018,04,26,05,06,7.70
2018,04,26,05,07,7.70
2018,04,26,05,08,7.70
2018,04,26,05,09,7.70
2018,04,26,05,10,7.70
2018,04,26,05,11,7.70
2018,04,26,05,12,7.70
2018,04,26,05,13,7.70
2018,04,26,05,14,7.70
2018,04,26,05,15,7.70
2018,04,26,05,16,7.70
2018,04,26,05,17,7.70
2018,04,26,05,18,7.70
2018,04,26,05,19,7.60
2018,04,26,05,20,7.60
2018,04,26,05,21,7.70
2018,04,26,05,22,7.70
2018,04,26,05,23,7.70
2018,04,26,05,24,7.70
2018,04,26,05,25,7.70
2018,04,26,05,26,7.70
2018,04,26,05,27,7.70
2018,04,26,05,28,7.70
2018,04,26,05,29,7.70
2018,04,26,05,30,7.70
2018,04,26,05,31,7.70
2018,04,26,05,32,7.70
2018,04,26,05,33,7.70
2018,04,26,05,34,7.70
2018,04,26,05,35,7.60
2018,04,26,05,36,7.60
2018,04,26,05,37,7.60
2018,04,26,05,38,7.60
2018,04,26,05,39,7.60
2018,04,26,05,40,7.60
2018,04,26,05,41,7.60
2018,04,26,05,42,7.60
2018,04,26,05,43,7.50
2018,04,26,05,44,7.50
2018,04,26,05,45,7.50
2018,04,26,05,46,7.50
2018,04,26,05,47,7.50
2018,04,26,05,48,7.50
2018,04,26,05,49,7.50
2018,04,26,05,50,7.40
2018,04,26,05,51,7.40
2018,04,26,05,52,7.40
2018,04,26,05,53,7.40
2018,04,26,05,54,7.40
2018,04,26,05,55,7.40
2018,04,26,05,56,7.40
2018,04,26,05,57,7.40
2018,04,26,05,58,7.40
2018,04,26,05,59,7.40
2018,04,26,06,00,7.40
2018,04,26,06,01,7.40
2018,04,26,06,02,7.40
2018,04,26,06,03,7.40
2018,04,26,06,04,7.40
2018,04,26,06,05,7.40
2018,04,26,06,06,7.40
2018,04,26,06,07,7.40
2018,04,26,06,08,7.40
2018,04,26,06,09,7.30
2018,04,26,06,10,7.30
2018,04,26,06,11,7.40
2018,04,26,06,12,7.30
2018,04,26,06,13,7.30
2018,04,26,06,14,7.30
2018,04,26,06,15,7.30
2018,04,26,06,16,7.30
2018,04,26,06,17,7.30
2018,04,26,06,18,7.40
2018,04,26,06,19,7.40
2018,04,26,06,20,7.40
2018,04,26,06,21,7.40
2018,04,26,06,22,7.40
2018,04,26,06,23,7.50
2018,04,26,06,24,7.50
2018,04,26,06,25,7.50
2018,04,26,06,26,7.50
2018,04,26,06,27,7.50
2018,04,26,06,28,7.60
2018,04,26,06,29,7.60
2018,04,26,06,30,7.60
2018,04,26,06,31,7.60
2018,04,26,06,32,7.60
2018,04,26,06,33,7.60
2018,04,26,06,34,7.60
2018,04,26,06,35,7.60
2018,04,26,06,36,7.60
2018,04,26,06,37,7.60
2018,04,26,06,38,7.60
2018,04,26,06,39,7.60
2018,04,26,06,40,7.60
2018,04,26,06,41,7.60
2018,04,26,06,42,7.60
2018,04,26,06,43,7.60
2018,04,26,06,44,7.60
2018,04,26,06,45,7.60
2018,04,26,06,46,7.60
2018,04,26,06,47,7.60
2018,04,26,06,48,7.60
2018,04,26,06,49,7.60
2018,04,26,06,50,7.60
2018,04,26,06,51,7.60
2018,04,26,06,52,7.60
2018,04,26,06,53,7.60
2018,04,26,06,54,7.70
2018,04,26,06,55,7.70
2018,04,26,06,56,7.70
2018,04,26,06,57,7.70
2018,04,26,06,58,7.70
2018,04,26,06,59,7.70
2018,04,26,07,00,7.80
2018,04,26,07,01,7.80
2018,04,26,07,02,7.80
2018,04,26,07,03,7.80
2018,04,26,07,04,7.80
2018,04,26,07,05,7.80
2018,04,26,07,06,7.80
2018,04,26,07,07,7.90
2018,04,26,07,08,7.90
2018,04,26,07,09,7.90
2018,04,26,07,10,7.90
2018,04,26,07,11,7.90
2018,04,26,07,12,7.90
2018,04,26,07,13,7.90
2018,04,26,07,14,7.90
2018,04,26,07,15,8.00
2018,04,26,07,16,8.00
2018,04,26,07,17,8.00
2018,04,26,07,18,8.00
2018,04,26,07,19,8.10
2018,04,26,07,20,8.10
2018,04,26,07,21,8.10
2018,04,26,07,22,8.10
2018,04,26,07,23,8.10
2018,04,26,07,24,8.10
2018,04,26,07,25,8.20
2018,04,26,07,26,8.20
2018,04,26,07,27,8.20
2018,04,26,07,28,8.20
2018,04,26,07,29,8.20
2018,04,26,07,30,8.20
2018,04,26,07,31,8.20
2018,04,26,07,32,8.30
2018,04,26,07,33,8.30
2018,04,26,07,34,8.30
2018,04,26,07,35,8.30
2018,04,26,07,36,8.30
2018,04,26,07,37,8.40
2018,04,26,07,38,8.40
2018,04,26,07,39,8.40
2018,04,26,07,40,8.40
2018,04,26,07,41,8.50
2018,04,26,07,42,8.50
2018,04,26,07,43,8.60
2018,04,26,07,44,8.60
2018,04,26,07,45,8.70
2018,04,26,07,46,8.70
2018,04,26,07,47,8.80
2018,04,26,07,48,8.80
2018,04,26,07,49,8.80
2018,04,26,07,50,8.90
2018,04,26,07,51,9.00
2018,04,26,07,52,9.10
2018,04,26,07,53,9.10
2018,04,26,07,54,9.20
2018,04,26,07,55,9.30
2018,04,26,07,56,9.40
2018,04,26,07,57,9.50
2018,04,26,07,58,9.60
2018,04,26,07,59,9.60
2018,04,26,08,00,9.70
2018,04,26,08,01,9.70
2018,04,26,08,02,9.80
2018,04,26,08,03,9.90
2018,04,26,08,04,10.00
2018,04,26,08,05,10.10
2018,04,26,08,06,10.10
2018,04,26,08,07,10.20
2018,04,26,08,08,10.30
2018,04,26,08,09,10.40
2018,04,26,08,10,10.50
2018,04,26,08,11,10.60
2018,04,26,08,12,10.70
2018,04,26,08,13,10.80
2018,04,26,08,14,10.90
2018,04,26,08,15,11.00
2018,04,26,08,16,11.10
2018,04,26,08,17,11.20
2018,04,26,08,18,11.30
2018,04,26,08,19,11.40
2018,04,26,08,20,11.40
2018,04,26,08,21,11.50
2018,04,26,08,22,11.60
2018,04,26,08,23,11.70
2018,04,26,08,24,11.80
2018,04,26,08,25,11.90
2018,04,26,08,26,12.00
2018,04,26,08,27,12.10
2018,04,26,08,28,12.20
2018,04,26,08,29,12.30
2018,04,26,08,30,12.40
2018,04,26,08,31,12.50
2018,04,26,08,32,12.60
2018,04,26,08,33,12.80
2018,04,26,08,34,12.90
2018,04,26,08,35,13.00
2018,04,26,08,36,13.20
2018,04,26,08,37,13.30
2018,04,26,08,38,13.50
2018,04,26,08,39,13.70
2018,04,26,08,40,13.80
2018,04,26,08,41,13.90
2018,04,26,08,42,14.00
2018,04,26,08,43,14.10
2018,04,26,08,44,14.20
2018,04,26,08,45,14.20
2018,04,26,08,46,14.30
2018,04,26,08,47,14.40
2018,04,26,08,48,14.40
2018,04,26,08,49,14.50
2018,04,26,08,50,14.60
2018,04,26,08,51,14.60
2018,04,26,08,52,14.70
2018,04,26,08,53,14.80
2018,04,26,08,54,15.00
2018,04,26,08,55,15.00
2018,04,26,08,56,15.00
2018,04,26,08,57,15.00
2018,04,26,08,58,15.00
2018,04,26,08,59,15.00
2018,04,26,09,00,15.00
2018,04,26,09,01,15.10
2018,04,26,09,02,15.20
2018,04,26,09,03,15.30
2018,04,26,09,04,15.40
2018,04,26,09,05,15.50
2018,04,26,09,06,15.60
2018,04,26,09,07,15.70
2018,04,26,09,08,15.80
2018,04,26,09,09,15.80
2018,04,26,09,10,15.90
2018,04,26,09,11,15.90
2018,04,26,09,12,16.00
2018,04,26,09,13,16.00
2018,04,26,09,14,16.10
2018,04,26,09,15,16.10
2018,04,26,09,16,16.10
2018,04,26,09,17,16.10
2018,04,26,09,18,16.20
2018,04,26,09,19,16.20
2018,04,26,09,20,16.30
2018,04,26,09,21,16.30
2018,04,26,09,22,16.40
2018,04,26,09,23,16.40
2018,04,26,09,24,16.50
2018,04,26,09,25,16.50
2018,04,26,09,26,16.60
2018,04,26,09,27,16.70
2018,04,26,09,28,16.70
2018,04,26,09,29,16.80
2018,04,26,09,30,16.90
2018,04,26,09,31,17.00
2018,04,26,09,32,17.00
2018,04,26,09,33,17.10
2018,04,26,09,34,17.10
2018,04,26,09,35,17.20
2018,04,26,09,36,17.20
2018,04,26,09,37,17.30
2018,04,26,09,38,17.30
2018,04,26,09,39,17.20
2018,04,26,09,40,17.20
2018,04,26,09,41,17.10
2018,04,26,09,42,17.10
2018,04,26,09,43,17.10
2018,04,26,09,44,17.10
2018,04,26,09,45,17.10
2018,04,26,09,46,17.20
2018,04,26,09,47,17.20
2018,04,26,09,48,17.20
2018,04,26,09,49,17.30
2018,04,26,09,50,17.30
2018,04,26,09,51,17.40
2018,04,26,09,52,17.50
2018,04,26,09,53,17.60
2018,04,26,09,54,17.70
2018,04,26,09,55,17.70
2018,04,26,09,56,17.80
2018,04,26,09,57,17.90
2018,04,26,09,58,18.00
2018,04,26,09,59,18.10
2018,04,26,10,00,18.20
2018,04,26,10,01,18.20
2018,04,26,10,02,18.30
2018,04,26,10,03,18.30
2018,04,26,10,04,18.40
2018,04,26,10,05,18.50
2018,04,26,10,06,18.50
2018,04,26,10,07,18.50
2018,04,26,10,08,18.60
2018,04,26,10,09,18.70
2018,04,26,10,10,18.70
2018,04,26,10,11,18.70
2018,04,26,10,12,18.80
2018,04,26,10,13,18.80
2018,04,26,10,14,18.80
2018,04,26,10,15,18.90
2018,04,26,10,16,18.90
2018,04,26,10,17,18.90
2018,04,26,10,18,19.00
2018,04,26,10,19,19.10
2018,04,26,10,20,19.10
2018,04,26,10,21,19.10
2018,04,26,10,22,19.10
2018,04,26,10,23,19.10
2018,04,26,10,24,19.10
2018,04,26,10,25,19.20
2018,04,26,10,26,19.20
2018,04,26,10,27,19.30
2018,04,26,10,28,19.30
2018,04,26,10,29,19.40
2018,04,26,10,30,19.40
2018,04,26,10,31,19.40
2018,04,26,10,32,19.50
2018,04,26,10,33,19.50
2018,04,26,10,34,19.50
2018,04,26,10,35,19.50
2018,04,26,10,36,19.50
2018,04,26,10,37,19.60
2018,04,26,10,38,19.60
2018,04,26,10,39,19.60
2018,04,26,10,40,19.70
2018,04,26,10,41,19.80
2018,04,26,10,42,19.80
2018,04,26,10,43,19.90
2018,04,26,10,44,20.00
2018,04,26,10,45,20.00
2018,04,26,10,46,20.10
2018,04,26,10,47,20.10
2018,04,26,10,48,20.10
2018,04,26,10,49,20.10
2018,04,26,10,50,20.10
2018,04,26,10,51,20.00
2018,04,26,10,52,20.00
2018,04,26,10,53,20.10
2018,04,26,10,54,20.10
2018,04,26,10,55,20.10
2018,04,26,10,56,20.10
2018,04,26,10,57,20.10
2018,04,26,10,58,20.10
2018,04,26,10,59,20.10
2018,04,26,11,00,20.10
2018,04,26,11,01,20.10
2018,04,26,11,02,20.10
2018,04,26,11,03,20.20
2018,04,26,11,04,20.20
2018,04,26,11,05,20.20
2018,04,26,11,06,20.20
2018,04,26,11,07,20.20
2018,04,26,11,08,20.30
2018,04,26,11,09,20.30
2018,04,26,11,10,20.40
2018,04,26,11,11,20.40
2018,04,26,11,12,20.50
2018,04,26,11,13,20.50
2018,04,26,11,14,20.60
2018,04,26,11,15,20.60
2018,04,26,11,16,20.70
2018,04,26,11,17,20.70
2018,04,26,11,18,20.70
2018,04,26,11,19,20.80
2018,04,26,11,20,20.80
2018,04,26,11,21,20.90
2018,04,26,11,22,21.00
2018,04,26,11,23,21.00
2018,04,26,11,24,21.10
2018,04,26,11,25,21.20
2018,04,26,11,26,21.20
2018,04,26,11,27,21.30
2018,04,26,11,28,21.30
2018,04,26,11,29,21.30
2018,04,26,11,30,21.30
2018,04,26,11,31,21.30
2018,04,26,11,32,21.30
2018,04,26,11,33,21.20
2018,04,26,11,34,21.30
2018,04,26,11,35,21.30
2018,04,26,11,36,21.30
2018,04,26,11,37,21.30
2018,04,26,11,38,21.40
2018,04,26,11,39,21.50
2018,04,26,11,40,21.50
2018,04,26,11,41,21.50
2018,04,26,11,42,21.50
2018,04,26,11,43,21.50
2018,04,26,11,44,21.50
2018,04,26,11,45,21.60
2018,04,26,11,46,21.60
2018,04,26,11,47,21.70
2018,04,26,11,48,21.60
2018,04,26,11,49,21.60
2018,04,26,11,50,21.60
2018,04,26,11,51,21.70
2018,04,26,11,52,21.80
2018,04,26,11,53,21.80
2018,04,26,11,54,21.80
2018,04,26,11,55,21.80
2018,04,26,11,56,21.80
2018,04,26,11,57,21.80
2018,04,26,11,58,21.80
2018,04,26,11,59,21.80
2018,04,26,12,00,21.80
2018,04,26,12,01,21.80
2018,04,26,12,02,21.80
2018,04,26,12,03,21.80
2018,04,26,12,04,21.80
2018,04,26,12,05,21.80
2018,04,26,12,06,21.80
2018,04,26,12,07,21.80
2018,04,26,12,08,21.90
2018,04,26,12,09,21.90
2018,04,26,12,10,22.00
2018,04,26,12,11,22.10
2018,04,26,12,12,22.10
2018,04,26,12,13,22.10
2018,04,26,12,14,22.10
2018,04,26,12,15,22.10
2018,04,26,12,16,22.20
2018,04,26,12,17,22.20
2018,04,26,12,18,22.20
2018,04,26,12,19,22.20
2018,04,26,12,20,22.30
2018,04,26,12,21,22.30
2018,04,26,12,22,22.40
2018,04,26,12,23,22.40
2018,04,26,12,24,22.40
2018,04,26,12,25,22.50
2018,04,26,12,26,22.50
2018,04,26,12,27,22.50
2018,04,26,12,28,22.50
2018,04,26,12,29,22.60
2018,04,26,12,30,22.60
2018,04,26,12,31,22.60
2018,04,26,12,32,22.60
2018,04,26,12,33,22.60
2018,04,26,12,34,22.60
2018,04,26,12,35,22.60
2018,04,26,12,36,22.60
2018,04,26,12,37,22.60
2018,04,26,12,38,22.70
2018,04,26,12,39,22.70
2018,04,26,12,40,22.70
2018,04,26,12,41,22.70
2018,04,26,12,42,22.70
2018,04,26,12,43,22.80
2018,04,26,12,44,22.80
2018,04,26,12,45,22.90
2018,04,26,12,46,22.90
2018,04,26,12,47,23.00
2018,04,26,12,48,23.00
2018,04,26,12,49,23.00
2018,04,26,12,50,23.00
2018,04,26,12,51,23.00
2018,04,26,12,52,22.90
2018,04,26,12,53,23.00
2018,04,26,12,54,23.00
2018,04,26,12,55,23.00
2018,04,26,12,56,23.00
2018,04,26,12,57,23.10
2018,04,26,12,58,23.10
2018,04,26,12,59,23.10
2018,04,26,13,00,23.20
2018,04,26,13,01,23.20
2018,04,26,13,02,23.10
2018,04,26,13,03,23.10
2018,04,26,13,04,23.10
2018,04,26,13,05,23.10
2018,04,26,13,06,23.10
2018,04,26,13,07,23.10
2018,04,26,13,08,23.20
2018,04,26,13,09,23.30
2018,04,26,13,10,23.30
2018,04,26,13,11,23.40
2018,04,26,13,12,23.50
2018,04,26,13,13,23.60
2018,04,26,13,14,23.70
2018,04,26,13,15,23.70
2018,04,26,13,16,23.80
2018,04,26,13,17,23.90
2018,04,26,13,18,23.90
2018,04,26,13,19,23.90
2018,04,26,13,20,23.90
2018,04,26,13,21,23.90
2018,04,26,13,22,24.00
2018,04,26,13,23,24.00
2018,04,26,13,24,24.10
2018,04,26,13,25,24.10
2018,04,26,13,26,24.10
2018,04,26,13,27,24.20
2018,04,26,13,28,24.20
2018,04,26,13,29,24.20
2018,04,26,13,30,24.20
2018,04,26,13,31,24.20
2018,04,26,13,32,24.10
2018,04,26,13,33,24.10
2018,04,26,13,34,24.10
2018,04,26,13,35,24.10
2018,04,26,13,36,24.10
2018,04,26,13,37,24.10
2018,04,26,13,38,24.00
2018,04,26,13,39,24.00
2018,04,26,13,40,23.90
2018,04,26,13,41,23.90
2018,04,26,13,42,23.80
2018,04,26,13,43,23.80
2018,04,26,13,44,23.80
2018,04,26,13,45,23.70
2018,04,26,13,46,23.70
2018,04,26,13,47,23.80
2018,04,26,13,48,23.70
2018,04,26,13,49,23.80
2018,04,26,13,50,23.80
2018,04,26,13,51,23.80
2018,04,26,13,52,23.90
2018,04,26,13,53,23.90
2018,04,26,13,54,24.00
2018,04,26,13,55,24.10
2018,04,26,13,56,24.20
2018,04,26,13,57,24.30
2018,04,26,13,58,24.30
2018,04,26,13,59,24.40
2018,04,26,14,00,24.50
2018,04,26,14,01,24.60
2018,04,26,14,02,24.70
2018,04,26,14,03,24.80
2018,04,26,14,04,24.80
2018,04,26,14,05,24.80
2018,04,26,14,06,24.80
2018,04,26,14,07,24.90
2018,04,26,14,08,24.90
2018,04,26,14,09,24.90
2018,04,26,14,10,24.80
2018,04,26,14,11,24.80
2018,04,26,14,12,24.70
2018,04,26,14,13,24.60
2018,04,26,14,14,24.50
2018,04,26,14,15,24.40
2018,04,26,14,16,24.40
2018,04,26,14,17,24.40
2018,04,26,14,18,24.50
2018,04,26,14,19,24.60
2018,04,26,14,20,24.70
2018,04,26,14,21,24.80
2018,04,26,14,22,24.80
2018,04,26,14,23,24.80
2018,04,26,14,24,24.90
2018,04,26,14,25,24.90
2018,04,26,14,26,24.90
2018,04,26,14,27,25.00
2018,04,26,14,28,25.00
2018,04,26,14,29,25.10
2018,04,26,14,30,25.10
2018,04,26,14,31,25.10
2018,04,26,14,32,25.10
2018,04,26,14,33,25.10
2018,04,26,14,34,25.10
2018,04,26,14,35,25.10
2018,04,26,14,36,25.10
2018,04,26,14,37,25.10
2018,04,26,14,38,25.10
2018,04,26,14,39,25.10
2018,04,26,14,40,25.10
2018,04,26,14,41,25.10
2018,04,26,14,42,25.20
2018,04,26,14,43,25.20
2018,04,26,14,44,25.20
2018,04,26,14,45,25.20
2018,04,26,14,46,25.30
2018,04,26,14,47,25.30
2018,04,26,14,48,25.30
2018,04,26,14,49,25.30
2018,04,26,14,50,25.30
2018,04,26,14,51,25.20
2018,04,26,14,52,25.20
2018,04,26,14,53,25.10
2018,04,26,14,54,25.10
2018,04,26,14,55,25.10
2018,04,26,14,56,25.20
2018,04,26,14,57,25.20
2018,04,26,14,58,25.20
2018,04,26,14,59,25.20
2018,04,26,15,00,25.20
2018,04,26,15,01,25.20
2018,04,26,15,02,25.20
2018,04,26,15,03,25.10
2018,04,26,15,04,25.10
2018,04,26,15,05,25.10
2018,04,26,15,06,25.10
2018,04,26,15,07,25.10
2018,04,26,15,08,25.20
2018,04,26,15,09,25.20
2018,04,26,15,10,25.20
2018,04,26,15,11,25.20
2018,04,26,15,12,25.20
2018,04,26,15,13,25.30
2018,04,26,15,14,25.30
2018,04,26,15,15,25.40
2018,04,26,15,16,25.40
2018,04,26,15,17,25.50
2018,04,26,15,18,25.50
2018,04,26,15,19,25.40
2018,04,26,15,20,25.40
2018,04,26,15,21,25.40
2018,04,26,15,22,25.40
2018,04,26,15,23,25.40
2018,04,26,15,24,25.50
2018,04,26,15,25,25.50
2018,04,26,15,26,25.50
2018,04,26,15,27,25.60
2018,04,26,15,28,25.60
2018,04,26,15,29,25.60
2018,04,26,15,30,25.60
2018,04,26,15,31,25.60
2018,04,26,15,32,25.70
2018,04,26,15,33,25.70
2018,04,26,15,34,25.70
2018,04,26,15,35,25.70
2018,04,26,15,36,25.70
2018,04,26,15,37,25.70
2018,04,26,15,38,25.70
2018,04,26,15,39,25.80
2018,04,26,15,40,25.80
2018,04,26,15,41,25.90
2018,04,26,15,42,25.90
2018,04,26,15,43,25.90
2018,04,26,15,44,25.90
2018,04,26,15,45,25.80
2018,04,26,15,46,25.80
2018,04,26,15,47,25.70
2018,04,26,15,48,25.70
2018,04,26,15,49,25.70
2018,04,26,15,50,25.70
2018,04,26,15,51,25.70
2018,04,26,15,52,25.70
2018,04,26,15,53,25.70
2018,04,26,15,54,25.70
2018,04,26,15,55,25.70
2018,04,26,15,56,25.70
2018,04,26,15,57,25.70
2018,04,26,15,58,25.70
2018,04,26,15,59,25.70
2018,04,26,16,00,25.70
2018,04,26,16,01,25.70
2018,04,26,16,02,25.70
2018,04,26,16,03,25.80
2018,04,26,16,04,25.80
2018,04,26,16,05,25.80
2018,04,26,16,06,25.80
2018,04,26,16,07,25.80
2018,04,26,16,08,25.70
2018,04,26,16,09,25.70
2018,04,26,16,10,25.70
2018,04,26,16,11,25.70
2018,04,26,16,12,25.70
2018,04,26,16,13,25.60
2018,04,26,16,14,25.60
2018,04,26,16,15,25.60
2018,04,26,16,16,25.60
2018,04,26,16,17,25.60
2018,04,26,16,18,25.60
2018,04,26,16,19,25.70
2018,04,26,16,20,25.70
2018,04,26,16,21,25.80
2018,04,26,16,22,25.80
2018,04,26,16,23,25.80
2018,04,26,16,24,25.80
2018,04,26,16,25,25.90
2018,04,26,16,26,25.90
2018,04,26,16,27,25.90
2018,04,26,16,28,25.90
2018,04,26,16,29,25.90
2018,04,26,16,30,25.90
2018,04,26,16,31,25.90
2018,04,26,16,32,25.80
2018,04,26,16,33,25.70
2018,04,26,16,34,25.70
2018,04,26,16,35,25.60
2018,04,26,16,36,25.60
2018,04,26,16,37,25.60
2018,04,26,16,38,25.70
2018,04,26,16,39,25.70
2018,04,26,16,40,25.80
2018,04,26,16,41,25.80
2018,04,26,16,42,25.80
2018,04,26,16,43,25.80
2018,04,26,16,44,25.80
2018,04,26,16,45,25.90
2018,04,26,16,46,25.90
2018,04,26,16,47,25.90
2018,04,26,16,48,26.00
2018,04,26,16,49,26.10
2018,04,26,16,50,26.10
2018,04,26,16,51,26.10
2018,04,26,16,52,26.20
2018,04,26,16,53,26.20
2018,04,26,16,54,26.20
2018,04,26,16,55,26.20
2018,04,26,16,56,26.20
2018,04,26,16,57,26.20
2018,04,26,16,58,26.20
2018,04,26,16,59,26.20
2018,04,26,17,00,26.20
2018,04,26,17,01,26.20
2018,04,26,17,02,26.30
2018,04,26,17,03,26.30
2018,04,26,17,04,26.30
2018,04,26,17,05,26.30
2018,04,26,17,06,26.30
2018,04,26,17,07,26.20
2018,04,26,17,08,26.20
2018,04,26,17,09,26.10
2018,04,26,17,10,26.10
2018,04,26,17,11,26.10
2018,04,26,17,12,26.10
2018,04,26,17,13,26.10
2018,04,26,17,14,26.10
2018,04,26,17,15,26.20
2018,04,26,17,16,26.20
2018,04,26,17,17,26.20
2018,04,26,17,18,26.20
2018,04,26,17,19,26.20
2018,04,26,17,20,26.20
2018,04,26,17,21,26.20
2018,04,26,17,22,26.20
2018,04,26,17,23,26.20
2018,04,26,17,24,26.20
2018,04,26,17,25,26.20
2018,04,26,17,26,26.30
2018,04,26,17,27,26.30
2018,04,26,17,28,26.30
2018,04,26,17,29,26.30
2018,04,26,17,30,26.30
2018,04,26,17,31,26.20
2018,04,26,17,32,26.20
2018,04,26,17,33,26.20
2018,04,26,17,34,26.20
2018,04,26,17,35,26.20
2018,04,26,17,36,26.20
2018,04,26,17,37,26.20